Wind_Gust
16 16 16 15 16 15 15 15 15 14 15 15 15 15 15 15 15 15 15 16 16 16 16 17 17 18 18 19 20 20 17 22 22 20 18 37 21 21 29 14 9 18 13 7 8 10 12 13 15 14 15 12 15 16 14 16 14 10 16 14 13 14 20 19 21 19 5 15 11 18 13 14 11 6 7 14 27 25 20 21 23 25 24 28 33 32 29 24
16 16 16 16 16 16 16 15 15 15 15 16 16 16 16 16 16 15 16 16 16 17 17 16 17 18 19 18 20 18 18 19 23 22 35 32 12 19 13 13 10 16 12 10 12 13 13 14 14 14 15 15 8 14 8 19 15 15 12 13 18 14 26 18 23 23 15 8 9 6 5 4 13 5 12 8 19 21 20 20 23 25 25 30 31 32 26 25
16 16 16 16 17 16 16 16 16 16 16 16 16 16 16 15 16 16 16 16 15 16 17 17 17 18 19 18 17 15 19 21 20 24 30 26 36 22 14 11 13 16 15 12 12 14 16 13 14 16 15 14 11 15 14 20 15 14 11 14 18 16 20 20 21 24 21 6 14 15 12 2 5 5 10 4 15 17 18 21 16 26 23 27 30 29 28 23
17 16 16 16 16 16 16 16 16 17 16 16 16 15 15 16 16 16 16 16 16 15 16 16 17 17 18 17 15 17 17 19 15 14 8 7 18 30 21 14 14 15 9 13 12 17 14 15 16 18 17 15 11 17 16 16 16 11 19 19 18 14 19 22 25 24 19 15 4 5 3 6 3 7 4 6 20 17 11 13 22 20 24 25 28 28 25 24
17 17 17 17 17 17 17 17 17 17 17 17 16 16 16 16 16 16 16 16 16 16 16 16 16 17 18 17 15 15 16 10 9 6 8 5 10 19 20 16 14 12 12 12 13 16 17 18 18 18 17 16 15 10 17 14 18 15 15 18 20 22 24 27 20 18 17 8 17 12 6 11 14 9 9 6 5 14 18 16 22 22 23 24 23 23 23 21
18 17 17 17 17 18 18 18 18 18 17 17 17 17 17 16 16 16 16 16 16 16 16 16 16 16 18 16 18 14 8 8 10 6 2 7 15 18 18 14 13 10 9 12 15 13 16 17 18 18 17 13 11 17 11 18 12 22 17 11 17 21 24 23 23 12 18 16 11 10 11 12 7 11 8 8 12 14 20 22 25 25 21 20 19 19 17 19
18 18 18 18 19 18 19 19 19 19 18 18 18 18 17 17 17 17 16 16 16 16 16 16 16 17 15 16 19 11 11 30 16 7 9 8 13 14 14 11 8 4 9 13 15 17 14 17 17 14 15 15 15 21 18 15 18 19 20 12 17 16 20 19 22 13 8 4 6 9 16 17 6 4 5 7 4 16 20 22 25 25 24 22 21 16 18 17
18 18 19 19 19 19 19 19 19 19 19 19 19 19 18 18 17 17 17 17 16 16 16 16 15 15 14 17 13 10 13 22 19 8 10 9 14 14 14 9 8 7 12 15 14 18 15 17 17 15 18 14 10 19 13 19 15 21 27 16 15 15 18 16 13 17 6 8 3 6 10 15 3 4 8 7 17 24 25 22 22 23 24 20 18 17 14 12
19 19 19 19 19 19 19 19 19 20 20 19 20 19 19 18 18 17 17 16 16 15 16 16 15 13 12 11 10 16 18 21 18 14 15 13 13 13 13 14 11 12 12 13 15 16 14 14 17 16 13 17 14 16 13 15 20 17 16 13 15 19 17 18 17 13 15 10 7 5 7 11 8 8 12 7 19 25 25 21 24 22 20 19 17 15 13 13
19 19 19 19 19 19 19 20 20 20 20 20 20 19 19 18 18 17 17 17 16 16 15 16 15 13 13 10 11 10 16 18 16 18 17 15 14 13 14 10 15 13 15 14 14 16 17 16 14 11 17 20 14 15 12 16 18 13 14 18 18 16 17 18 22 18 8 6 4 9 4 10 8 6 12 5 21 28 25 23 21 22 20 19 19 15 12 15
20 20 20 20 20 20 20 20 20 20 20 20 20 20 19 18 18 18 17 17 16 16 15 15 14 12 11 9 11 18 18 14 17 16 22 17 15 14 15 12 16 17 13 13 17 16 16 19 16 12 13 18 8 15 15 19 14 19 22 17 13 20 24 19 14 14 3 9 7 12 15 8 8 11 16 10 17 27 26 25 24 19 21 19 19 16 12 12
20 20 20 20 20 20 21 21 21 21 21 21 21 20 19 18 19 18 19 17 17 15 14 13 12 14 12 12 14 28 12 16 11 12 17 17 14 15 11 13 16 14 16 17 17 17 17 18 15 15 15 11 23 13 21 17 17 17 14 21 18 19 24 9 21 19 10 13 9 13 17 14 11 12 11 17 11 19 26 25 25 27 21 20 18 16 14 13
20 20 20 20 20 21 21 21 22 23 22 22 22 22 20 20 19 19 19 18 15 15 14 14 12 12 9 12 25 32 27 27 26 25 10 15 12 12 12 13 16 15 16 17 17 17 18 16 13 17 16 19 12 19 12 13 18 14 14 18 15 13 17 14 10 14 9 12 10 13 18 12 15 12 14 11 18 18 29 24 23 25 23 20 16 15 12 12
21 20 20 21 21 21 22 22 22 23 23 23 23 22 21 20 21 20 19 18 16 15 14 13 12 12 9 20 24 19 19 18 24 27 19 15 13 15 13 13 15 19 15 18 17 14 12 10 10 13 12 12 15 10 18 18 10 13 12 12 14 7 19 8 16 10 19 13 15 11 16 12 14 14 13 12 15 20 23 24 20 24 24 21 20 17 16 15
20 21 20 20 21 22 22 23 23 23 24 23 23 22 21 22 21 20 18 16 17 14 14 10 13 9 8 26 18 27 31 27 23 25 17 15 14 14 15 12 14 15 16 13 16 10 8 10 9 14 14 8 12 17 19 17 14 11 15 16 11 15 12 14 12 16 23 17 14 10 16 14 10 14 18 15 19 15 17 21 20 28 23 24 22 20 18 16
20 20 21 20 21 22 22 22 23 23 24 25 24 25 25 23 20 18 16 15 13 13 14 12 14 15 14 28 21 12 10 17 20 19 10 11 14 17 13 13 9 8 10 13 11 11 9 9 12 7 11 11 14 13 11 14 12 15 12 6 11 11 13 15 16 17 20 18 17 20 15 9 13 17 14 18 19 17 15 16 19 26 30 23 20 19 17 16
21 21 21 21 21 21 22 22 22 23 24 24 27 26 26 23 17 11 12 12 12 11 13 12 5 16 9 11 21 16 18 19 12 17 15 14 14 16 14 13 14 13 10 11 8 8 11 12 6 9 9 12 9 13 11 12 13 15 11 16 10 13 7 17 10 21 18 22 17 24 24 9 7 16 24 13 22 18 13 16 13 26 29 22 20 20 19 16
21 22 21 21 21 21 21 22 23 24 25 25 24 27 30 20 9 9 12 11 12 14 17 18 16 11 32 25 18 16 14 16 20 17 14 14 16 14 15 18 9 10 10 13 12 15 12 14 9 8 7 11 11 12 17 21 17 13 11 10 14 14 17 19 20 13 22 24 22 15 24 15 14 13 14 13 22 22 16 19 16 26 28 24 22 22 21 18
22 22 23 22 21 22 22 22 24 24 24 24 26 27 22 9 8 13 13 10 9 6 9 15 13 14 10 8 17 18 19 17 17 15 17 15 18 16 16 12 7 11 14 11 12 15 12 10 6 8 16 13 19 19 18 16 15 19 19 16 15 14 18 27 27 26 17 21 31 19 23 22 21 17 20 21 8 20 17 16 18 20 22 20 20 19 20 17
23 23 23 23 22 22 22 22 21 24 22 21 23 22 7 7 6 7 10 13 17 17 19 12 27 17 20 26 26 20 11 18 15 13 10 17 15 15 19 15 11 13 14 13 10 18 8 13 15 18 16 13 12 17 18 19 19 21 22 19 15 17 20 19 21 22 22 17 27 23 14 22 22 18 21 23 9 24 19 15 17 21 22 20 18 19 19 16
23 23 23 24 22 24 23 22 18 17 17 18 18 15 13 11 15 14 9 18 26 23 23 24 24 27 29 22 24 22 16 14 8 13 14 17 14 11 19 13 15 12 14 13 15 14 13 12 19 14 14 15 15 14 16 19 17 18 17 18 22 19 14 13 17 20 18 16 18 19 12 16 20 19 22 21 20 14 22 24 19 23 27 21 21 17 15 17
24 24 24 24 25 25 25 22 20 19 12 13 12 14 17 23 18 22 25 31 17 20 25 29 24 29 26 26 25 24 22 25 19 12 13 20 17 17 12 18 15 17 11 14 13 11 16 22 14 14 16 15 17 14 14 18 17 16 17 16 19 21 20 26 29 27 14 15 16 22 19 12 11 17 19 18 11 16 13 14 14 23 23 26 23 20 19 20
24 24 25 25 25 26 25 27 20 19 21 10 13 16 22 23 17 17 16 23 35 24 26 28 29 31 32 27 28 18 23 23 21 21 19 17 14 20 12 18 14 15 17 16 16 9 13 17 18 17 16 15 17 20 14 16 17 16 9 11 17 19 18 20 25 24 10 26 19 21 18 14 13 11 20 15 12 9 15 20 18 22 31 30 27 25 26 27
24 24 25 25 26 25 28 26 27 16 16 19 17 23 20 16 19 18 14 16 25 33 31 32 26 27 29 32 27 25 22 22 17 17 19 26 20 16 20 15 16 18 19 17 18 18 18 14 17 19 18 17 17 14 16 14 15 13 15 16 15 17 22 20 13 18 9 10 9 15 9 9 6 11 10 11 9 7 10 12 11 9 26 28 20 16 27 35
23 24 24 26 25 29 26 30 15 10 9 14 18 25 23 23 19 12 13 21 22 28 16 23 25 26 30 24 18 30 21 22 18 15 19 25 23 16 19 19 18 17 17 17 19 22 21 23 12 21 22 21 18 17 18 9 11 9 9 13 13 20 22 27 13 16 20 12 6 9 12 14 4 5 10 12 13 13 9 9 12 12 25 26 27 28 27 29
24 23 23 23 25 25 31 16 6 19 20 19 17 16 11 13 8 12 10 14 19 23 17 20 26 21 28 25 21 23 14 29 16 21 16 27 20 20 19 21 21 16 18 18 21 23 22 16 17 17 22 20 21 22 18 10 8 6 9 8 16 23 22 23 19 14 9 9 11 4 11 12 8 11 6 13 13 14 13 9 10 15 26 27 30 26 27 28
23 23 23 22 22 22 18 6 17 22 15 14 22 19 18 15 14 9 12 13 14 19 16 12 15 16 14 14 24 17 15 20 15 16 20 26 23 17 17 15 16 19 19 17 20 23 18 18 17 21 17 21 17 24 19 15 8 16 8 15 11 19 21 19 16 13 15 6 8 5 10 9 11 15 13 17 9 14 18 11 10 19 27 29 31 26 25 26
24 23 22 22 22 15 13 23 22 17 15 18 20 18 17 17 14 7 9 14 19 15 12 9 8 8 8 11 18 24 16 6 23 22 19 22 20 21 21 15 19 17 19 14 13 6 15 17 15 15 11 14 22 15 4 6 13 11 8 21 21 20 20 17 12 13 13 15 10 6 10 8 11 15 10 17 22 9 6 10 15 28 31 33 31 26 24 23
23 23 22 22 23 24 21 16 11 16 12 15 18 15 19 14 9 6 10 9 16 27 15 12 12 6 9 10 17 13 19 20 15 19 17 22 23 14 21 22 22 16 14 17 18 16 14 12 11 14 12 13 6 4 5 10 17 13 15 18 20 16 21 18 9 12 4 6 7 7 8 12 9 13 17 10 20 16 17 12 22 31 34 33 31 26 24 22
25 24 23 21 22 15 10 11 20 24 20 19 18 13 11 10 5 7 9 14 10 14 13 9 12 15 13 16 18 16 21 18 20 12 23 27 19 14 17 9 21 21 22 18 23 17 16 10 10 23 16 12 4 4 10 15 17 6 14 18 22 21 16 11 11 9 7 10 9 2 4 10 12 11 7 10 17 7 5 9 25 31 33 26 27 26 24 21
27 26 23 18 15 12 15 13 22 23 22 19 13 11 8 5 7 7 7 19 22 29 11 15 18 14 19 18 17 19 19 21 21 17 22 23 20 17 11 18 17 16 13 13 15 21 21 12 14 11 13 11 6 15 16 18 13 14 17 17 10 14 19 17 9 6 11 10 9 11 17 12 15 14 7 8 16 15 18 19 28 34 34 27 24 23 23 22
26 25 21 19 19 16 12 11 11 20 16 11 8 9 5 6 9 12 17 7 19 12 16 12 17 17 16 17 17 19 24 20 17 17 17 22 12 21 19 14 15 15 13 9 15 15 19 17 10 14 6 5 13 14 13 16 16 20 12 6 10 11 8 16 13 16 15 12 8 18 22 18 21 13 5 10 14 20 17 26 30 31 34 26 23 23 20 21
27 24 28 24 17 17 24 27 20 19 17 10 9 7 6 7 12 15 21 12 17 19 18 24 11 9 14 14 22 18 15 17 13 16 14 19 14 16 16 22 11 16 10 8 16 9 11 14 19 16 10 14 14 14 13 20 23 23 14 10 6 9 7 9 8 11 10 13 7 14 8 17 6 6 6 18 12 19 25 27 33 30 33 27 26 24 20 20
30 27 24 13 17 23 17 11 17 16 7 6 5 5 6 8 16 9 16 19 24 31 29 27 18 11 9 13 10 14 16 17 14 21 18 14 20 12 20 22 22 13 17 6 15 10 8 15 22 11 14 13 20 21 12 11 4 15 9 8 13 11 13 10 10 16 18 14 12 19 14 12 8 9 5 12 13 19 26 30 32 30 26 25 23 20 19 16
35 30 17 14 15 20 20 19 15 14 6 7 6 10 11 20 11 11 14 19 24 21 24 18 26 21 14 15 20 25 20 13 15 17 21 19 15 16 12 18 22 20 13 13 11 15 15 17 12 21 10 17 20 16 20 16 12 14 12 7 10 14 7 12 5 5 3 6 8 7 10 2 12 6 6 12 22 22 25 28 27 29 26 25 24 21 17 15
24 9 11 9 10 11 19 20 12 9 3 6 9 13 19 15 12 15 17 14 21 21 21 25 24 18 19 17 9 12 13 17 13 19 16 23 19 21 16 17 24 22 17 22 8 13 10 19 11 17 22 15 20 16 20 13 12 13 14 18 15 6 6 5 7 3 8 6 6 5 6 7 4 14 10 22 24 26 26 28 26 25 23 22 22 19 15 13
13 12 10 11 17 13 17 17 16 8 4 7 9 16 16 22 21 24 24 26 26 26 25 23 18 12 13 16 13 14 18 24 20 21 14 10 18 16 23 19 14 18 25 12 12 13 8 11 12 13 16 21 13 16 14 16 13 11 8 12 16 14 6 15 12 6 8 9 13 5 11 6 7 15 17 16 24 20 27 26 26 24 20 18 15 12 11 11
14 12 16 20 14 16 16 18 10 7 6 8 13 11 14 25 18 23 20 26 25 19 29 23 22 7 17 20 17 18 12 19 12 20 11 8 18 10 15 22 17 20 14 20 20 9 6 15 13 12 11 10 16 15 18 15 14 15 13 5 8 12 8 8 12 9 8 10 9 10 9 8 9 7 15 14 18 23 22 22 23 21 19 14 11 9 8 9
10 10 14 9 13 5 7 2 4 8 8 13 13 14 20 30 25 27 27 29 26 24 23 20 21 16 14 15 23 25 20 14 16 6 10 15 18 12 14 10 16 18 18 17 26 15 11 11 14 10 14 10 14 17 12 14 13 16 10 10 9 11 9 6 14 6 11 7 5 7 9 8 11 10 3 19 8 19 20 21 20 18 17 16 12 10 8 8
9 11 10 5 12 9 6 5 6 9 13 15 11 20 17 22 22 21 23 21 26 19 17 17 17 17 13 15 23 23 22 18 13 6 7 14 11 8 11 7 12 23 17 19 17 15 13 11 16 13 12 14 18 18 10 13 10 15 13 9 12 9 9 15 6 8 9 15 7 11 9 11 13 13 9 13 15 15 19 19 16 16 15 14 10 10 8 7
10 11 11 3 12 13 10 7 8 13 15 14 17 24 22 27 20 21 20 16 25 15 23 22 18 15 10 15 19 24 26 20 9 14 13 6 7 16 6 13 13 16 22 19 18 19 13 15 16 8 10 11 9 12 6 9 5 7 12 12 11 5 7 10 12 11 15 13 16 12 11 12 16 14 3 13 10 16 15 18 16 14 12 10 8 8 6 5
7 11 9 4 13 8 7 7 11 8 14 15 17 22 27 17 24 22 27 24 18 25 11 19 17 17 10 15 16 21 25 19 11 13 10 8 11 9 11 8 14 13 18 11 10 9 8 10 13 11 13 12 11 16 14 19 16 15 5 9 10 9 18 10 13 10 10 9 17 16 15 11 10 13 12 13 13 14 13 14 16 13 10 8 6 8 6 6
10 8 12 13 8 10 7 7 10 11 11 18 17 24 26 29 18 24 30 21 22 17 21 17 17 14 9 14 15 20 18 21 18 5 14 15 15 13 7 10 13 22 3 13 11 14 11 12 8 6 7 12 15 13 23 24 19 14 10 11 5 6 5 19 16 21 13 8 9 8 8 8 4 12 12 15 17 17 13 11 14 11 9 10 10 10 9 10
14 10 7 9 12 13 5 6 9 8 14 16 18 23 18 25 24 21 25 23 26 17 19 22 14 17 17 16 20 24 18 21 6 13 6 7 10 15 8 7 10 13 7 11 8 14 15 11 10 5 9 14 13 17 17 16 16 8 11 17 13 12 7 7 9 14 14 7 14 11 12 9 6 4 14 15 18 21 19 14 15 16 12 13 14 12 13 10
17 11 10 11 4 4 8 8 10 9 13 15 19 17 18 16 15 20 24 24 21 17 15 14 19 23 23 16 25 23 21 19 20 9 16 2 8 20 15 11 10 6 10 9 8 7 10 7 8 7 7 10 13 13 11 10 10 13 12 18 18 24 22 9 3 6 9 14 9 16 14 9 12 9 15 14 12 17 17 10 17 15 14 18 20 17 16 16
7 9 6 9 5 5 6 5 7 14 10 13 9 14 19 25 26 23 14 19 21 27 20 17 15 13 16 17 19 21 24 21 23 8 9 6 5 5 5 6 11 7 6 8 6 13 7 8 6 4 7 11 5 4 5 7 5 14 22 21 22 15 25 7 11 7 7 5 13 6 14 22 16 12 12 9 9 16 13 13 18 18 18 21 23 23 19 16
12 7 9 7 6 12 9 9 13 14 9 10 6 13 14 13 10 20 19 12 21 27 24 16 19 19 14 13 14 15 17 21 18 26 22 10 9 5 5 7 8 7 7 12 11 10 8 7 7 6 16 11 7 8 15 14 12 12 18 18 24 20 16 19 6 9 11 15 6 4 13 21 13 13 12 12 13 14 15 18 19 19 18 19 20 21 21 24
8 6 6 3 5 6 5 7 12 10 10 10 6 12 12 13 12 12 15 12 12 17 18 15 22 27 21 16 18 20 22 15 17 13 12 16 10 4 10 11 9 14 5 5 7 7 8 15 9 4 10 6 9 11 14 11 9 11 13 15 19 19 21 12 5 4 8 9 15 8 12 19 14 13 11 14 15 18 18 19 20 19 19 21 23 24 23 22
12 12 9 4 7 7 3 6 9 10 9 13 5 11 12 12 12 17 13 16 17 13 16 7 14 23 22 21 16 10 16 14 13 14 12 11 13 7 7 16 18 20 18 8 13 13 11 7 11 17 16 12 11 10 13 13 12 12 8 15 17 16 15 13 10 8 16 18 21 24 21 17 12 15 13 14 15 19 21 19 21 22 22 21 23 22 21 22
13 10 9 12 13 5 4 3 6 7 8 13 8 11 15 15 14 17 16 15 14 17 17 12 16 15 19 16 12 13 10 4 9 10 8 9 14 5 4 7 10 15 13 11 12 19 9 11 12 13 9 9 10 9 6 12 12 6 8 9 12 13 13 16 14 15 23 17 23 27 25 21 7 8 16 12 16 20 21 21 21 19 19 19 20 20 20 22
11 10 6 13 16 9 6 2 6 6 5 6 6 9 11 12 12 16 16 8 12 14 19 19 17 10 11 15 11 10 13 11 11 11 12 10 9 11 10 6 16 10 7 10 12 12 19 11 15 11 4 6 8 13 13 8 7 6 12 15 16 7 8 8 7 11 11 20 17 21 23 17 10 10 13 13 20 21 20 19 18 18 19 20 21 20 20 21
13 11 9 7 10 10 9 13 13 10 8 5 6 6 9 6 3 12 11 11 15 15 18 18 16 12 7 6 10 12 15 17 15 14 13 13 15 16 15 15 6 12 9 11 9 12 10 11 13 13 5 6 7 12 14 13 10 12 12 17 16 6 13 8 7 11 11 17 15 19 10 7 8 12 17 18 23 23 22 18 19 20 19 19 19 18 19 18
Wind_Speed
12 12 12 12 12 12 12 12 12 11 12 12 11 12 12 12 12 12 12 13 13 13 13 13 14 14 15 15 16 16 14 10 13 9 10 19 13 17 19 13 4 13 12 3 4 3 5 6 8 7 7 4 4 7 6 7 4 3 4 4 7 7 11 10 10 6 1 2 1 6 6 5 5 2 2 7 17 14 11 13 13 16 13 16 16 20 17 15
12 12 12 13 12 12 12 12 12 12 11 12 12 12 12 12 12 12 12 12 12 13 14 13 14 14 15 15 15 15 11 11 13 13 19 19 10 16 13 12 8 13 10 4 7 7 5 7 8 7 6 5 5 5 4 3 4 5 3 4 9 6 11 9 11 12 8 3 5 5 0 3 3 2 1 3 13 14 12 12 15 15 17 19 18 16 18 16
12 12 12 12 12 12 13 13 13 12 13 12 12 12 12 12 12 12 13 12 12 12 12 13 13 14 14 14 14 12 11 11 10 12 17 18 25 18 11 9 10 13 10 5 6 7 7 7 7 7 6 6 4 7 6 4 5 5 4 6 8 8 10 12 10 14 11 3 5 5 3 0 3 2 2 2 11 11 11 10 10 16 16 18 17 16 16 16
12 12 12 12 12 12 12 12 12 12 12 12 13 12 12 12 12 12 13 13 13 12 12 13 13 13 13 13 12 9 8 10 5 8 4 6 13 23 17 11 11 12 6 5 5 7 7 7 9 10 6 8 4 9 5 6 4 3 7 6 7 5 8 13 16 14 13 5 1 1 1 1 1 2 2 5 13 9 7 9 15 13 16 18 19 16 14 14
13 13 13 13 13 13 13 13 13 13 12 13 13 13 12 12 12 12 12 13 13 13 13 12 13 13 13 13 11 7 8 4 1 1 6 3 6 14 17 13 11 8 8 3 5 9 9 10 9 10 7 5 8 5 7 7 8 3 6 11 12 11 14 19 11 13 9 6 7 7 1 3 9 4 5 4 0 8 9 10 15 15 14 16 16 16 14 13
13 13 13 13 13 13 13 13 14 14 14 13 13 13 13 12 12 12 13 13 13 13 13 13 13 13 14 13 8 6 2 1 2 2 1 2 11 14 15 12 11 7 5 5 6 5 7 9 10 8 6 5 4 7 4 9 5 8 8 6 11 13 13 14 10 6 4 3 6 5 7 6 4 5 4 4 4 8 10 16 17 17 14 12 13 12 12 13
14 14 14 14 14 14 14 14 14 14 14 14 14 13 13 13 13 12 12 12 13 13 13 13 13 14 12 12 7 2 3 10 8 3 6 6 10 12 11 9 6 3 5 5 7 6 7 9 9 7 5 7 9 8 10 8 10 9 7 7 12 8 11 12 12 10 0 4 1 1 9 6 2 2 3 4 0 11 12 16 18 17 16 15 13 11 12 11
14 14 14 14 14 14 14 14 14 14 14 14 14 14 14 14 13 13 12 13 12 13 13 13 13 12 12 9 2 3 4 9 12 1 7 7 7 10 12 6 5 4 6 8 7 9 8 9 9 6 7 6 4 10 8 11 8 10 12 10 7 8 9 11 8 9 4 4 2 2 4 9 2 1 3 4 10 13 12 14 16 16 17 13 13 12 10 8
15 15 15 15 15 15 15 15 15 15 14 14 14 14 14 14 14 13 12 12 12 12 13 13 12 11 10 5 1 7 8 10 10 9 9 8 7 7 9 7 6 7 5 6 8 9 7 6 10 7 5 8 9 9 7 6 8 6 8 7 9 12 12 11 11 7 10 4 4 3 4 5 6 5 5 2 12 13 14 14 15 15 14 13 12 11 9 9
15 15 15 15 15 15 15 15 15 15 15 15 15 15 15 14 14 13 13 12 12 12 12 12 12 11 8 3 3 2 9 4 9 10 11 9 9 8 8 7 9 7 6 7 7 9 9 7 9 6 11 11 7 6 7 8 7 5 8 9 11 10 8 9 14 12 6 2 3 2 1 4 6 2 4 2 14 15 10 14 13 14 13 13 11 9 8 10
15 15 15 15 16 16 16 16 16 16 16 16 15 15 15 15 14 14 13 13 12 12 12 12 11 9 6 4 2 6 8 6 4 9 13 12 10 8 10 7 11 8 7 6 9 10 11 12 11 6 4 3 2 7 7 5 6 10 11 11 9 11 13 12 10 9 2 1 3 1 8 5 5 4 8 5 12 18 15 14 13 12 12 11 12 10 7 8
16 16 16 16 16 16 16 16 17 17 17 17 16 16 16 15 15 14 14 13 13 11 10 9 10 5 6 5 6 11 6 4 0 3 6 10 8 9 8 7 11 8 9 8 10 11 11 12 11 5 4 4 10 8 9 11 9 10 9 10 11 11 10 7 13 10 5 3 5 6 9 8 4 4 7 9 5 13 17 14 14 13 12 12 12 9 9 9
16 16 16 16 16 17 17 17 17 18 18 17 18 17 16 16 15 15 15 14 11 10 10 10 8 5 4 5 11 17 16 14 16 16 4 9 6 7 7 8 11 10 10 10 11 11 12 10 8 9 7 8 3 3 6 9 11 9 6 5 9 6 7 8 3 5 5 4 6 5 6 8 7 8 9 7 9 13 14 14 14 11 12 12 11 8 7 7
16 16 16 16 16 17 17 17 18 18 19 18 18 17 17 16 16 15 15 13 12 11 10 10 5 5 3 8 6 7 10 10 14 15 12 9 8 8 9 8 9 11 10 11 12 9 8 6 8 5 3 4 3 7 9 7 6 4 6 4 5 4 7 3 3 5 11 5 10 7 7 7 8 10 9 7 10 8 14 16 13 14 13 12 10 10 9 9
15 16 16 16 17 17 17 18 18 19 19 19 19 18 17 17 16 15 13 11 10 10 10 7 5 3 3 9 9 18 24 15 12 14 11 10 8 6 10 8 9 10 10 10 7 6 5 7 4 3 3 3 6 5 7 5 3 3 5 7 4 7 4 5 7 7 11 4 10 4 6 8 7 8 10 10 10 10 12 14 12 16 13 13 11 10 10 10
16 16 16 16 17 17 17 17 18 18 19 20 20 20 21 18 15 13 13 11 10 9 5 5 6 6 5 9 8 8 4 5 9 13 6 5 7 9 7 9 6 4 4 5 5 4 5 3 3 2 3 2 6 5 6 6 5 4 5 3 4 5 7 5 10 9 11 7 9 11 5 4 5 7 8 10 12 12 9 12 13 16 17 13 12 9 9 9
17 16 16 17 17 17 17 17 17 18 19 19 22 21 21 19 13 8 7 9 5 3 5 3 1 7 1 3 9 7 7 8 5 7 6 7 6 8 7 7 5 6 5 7 5 3 5 4 1 3 1 3 3 3 5 7 7 6 3 6 5 6 2 6 3 11 12 11 5 13 9 5 3 9 16 8 13 12 9 10 9 17 14 13 12 11 11 9
17 17 17 17 17 17 17 18 18 19 20 20 20 21 18 17 7 4 7 4 3 5 7 6 6 5 11 7 6 8 7 8 10 7 9 6 10 7 8 6 5 7 4 5 5 5 3 3 2 3 2 5 4 4 7 10 7 6 5 5 6 7 11 11 6 4 14 11 14 9 14 10 8 9 9 9 11 14 9 10 10 17 17 15 14 12 13 10
18 18 18 17 17 18 18 18 19 20 19 20 20 20 16 3 2 3 3 2 2 1 1 3 4 5 4 3 10 8 5 9 9 10 9 8 9 8 7 6 4 7 5 4 2 8 2 3 1 3 7 6 9 10 10 8 6 9 12 8 8 6 8 11 14 14 11 7 15 12 11 13 14 11 12 12 5 10 9 9 9 14 14 12 12 11 10 10
18 18 18 18 18 18 18 18 17 19 18 13 11 9 1 2 1 1 2 4 6 9 11 6 12 7 11 14 12 11 7 10 7 7 4 9 7 8 10 5 4 3 4 6 3 8 2 6 7 9 8 7 6 10 10 10 11 12 12 10 7 7 8 10 13 13 14 7 15 14 9 14 14 12 12 14 5 4 5 8 8 13 13 12 11 11 10 10
19 18 19 19 18 20 19 18 15 14 13 8 9 5 2 2 4 2 2 9 16 13 13 13 15 16 13 10 12 12 7 3 4 7 8 9 7 7 8 6 5 5 6 5 6 3 6 6 11 9 7 8 9 8 10 12 11 11 8 8 10 10 7 7 9 12 11 7 9 13 8 11 13 12 12 13 7 8 13 15 10 16 13 13 14 11 10 10
19 19 19 19 20 20 21 18 16 15 10 5 4 4 5 10 7 7 5 10 8 13 15 19 15 16 14 15 16 12 10 8 6 5 4 13 7 7 3 8 5 7 5 5 5 2 7 11 7 8 8 8 10 10 8 12 12 11 8 7 9 10 9 13 15 17 8 7 8 14 12 7 7 12 13 10 7 7 2 9 9 16 13 12 13 12 13 13
19 19 20 20 20 21 20 22 16 15 8 3 4 6 7 10 9 7 5 6 15 10 12 16 16 19 18 14 13 9 13 12 8 10 6 9 5 10 4 8 6 6 6 9 7 4 6 9 12 9 8 9 9 13 10 6 8 9 6 6 8 10 4 6 13 18 6 8 10 13 11 5 7 7 13 10 7 4 10 14 12 16 20 15 16 16 14 17
19 19 20 20 21 20 22 21 21 10 6 10 8 10 12 8 9 10 4 2 9 19 15 17 15 14 16 14 7 13 12 7 8 11 9 11 7 9 6 5 8 7 8 9 12 9 9 8 9 11 11 11 11 8 9 8 8 8 9 7 7 8 8 8 5 10 5 4 5 10 4 2 3 5 4 6 4 3 5 5 5 7 17 14 11 10 16 19
19 19 19 21 20 23 21 24 8 2 2 7 7 13 14 14 9 8 3 4 4 8 6 11 10 12 15 10 7 10 9 9 9 3 6 14 10 6 8 4 5 8 10 9 11 12 13 15 6 12 14 14 11 9 10 5 7 4 6 9 7 9 12 13 8 10 8 5 3 5 1 3 1 2 6 7 5 5 4 6 6 5 17 15 17 16 14 14
19 19 19 19 21 21 25 8 2 8 10 7 5 8 5 5 4 2 2 2 7 6 3 6 9 7 7 10 10 10 8 11 9 8 5 12 11 8 4 6 4 7 10 11 10 5 10 9 10 10 14 13 12 10 12 6 5 1 3 3 7 12 13 11 10 5 4 0 5 1 4 2 4 3 3 5 5 7 4 5 5 10 16 16 15 16 16 17
19 19 18 18 18 18 8 2 7 10 6 3 11 11 10 9 8 5 3 1 4 4 4 3 3 1 2 8 11 9 8 6 6 9 9 12 10 6 4 6 4 5 5 4 3 6 7 12 11 14 11 13 8 12 9 10 5 4 1 7 7 9 10 9 6 6 6 3 2 0 4 2 2 7 5 6 5 7 12 5 7 13 17 15 15 15 16 16
19 18 18 18 17 12 4 8 11 7 7 8 10 10 8 10 8 2 2 2 2 5 3 0 2 2 3 6 12 10 5 1 8 9 11 11 10 7 8 6 7 9 9 5 7 3 9 9 10 8 4 5 10 8 3 5 3 1 2 6 12 13 11 9 5 5 3 3 5 3 6 1 1 6 6 6 11 6 3 3 11 19 18 16 15 16 16 15
19 19 18 18 18 19 10 5 4 8 4 6 11 9 9 8 3 1 1 1 4 3 2 3 3 2 2 4 6 5 8 4 6 8 8 12 14 3 8 11 9 10 7 6 8 6 4 7 7 9 5 6 3 3 3 6 2 5 5 7 8 8 10 11 4 5 1 2 3 4 2 2 3 4 4 4 6 10 7 5 15 21 21 18 17 15 14 13
20 19 19 17 14 8 2 3 8 12 9 10 10 7 7 5 2 1 0 4 0 3 2 1 1 4 4 5 4 6 7 4 6 2 8 10 11 5 2 2 8 10 11 10 12 9 7 6 7 7 6 4 1 0 2 3 8 2 9 9 9 10 8 6 5 3 3 1 4 0 1 5 2 5 3 3 6 4 1 6 14 16 15 16 17 17 14 12
22 21 18 14 5 4 5 4 11 12 10 10 7 6 2 0 1 1 1 4 6 7 0 2 5 7 8 7 4 7 7 6 8 5 6 7 7 6 1 4 4 4 4 5 5 10 13 7 4 1 8 3 1 4 3 6 6 8 3 6 2 7 7 6 2 2 2 2 4 5 5 4 4 6 1 3 2 5 5 15 18 17 15 16 14 13 13 12
20 20 17 9 8 6 4 5 1 8 8 7 5 3 1 0 0 2 4 3 5 2 3 1 6 5 8 9 7 7 8 7 8 7 6 8 6 7 5 4 4 4 6 3 6 5 8 8 1 5 2 3 4 6 6 5 8 9 6 2 6 2 1 3 3 5 3 3 3 8 9 3 7 5 3 7 7 8 8 16 18 16 15 14 14 14 12 12
22 19 22 13 11 8 12 15 10 10 10 7 4 2 1 1 2 5 5 3 4 4 5 13 3 1 4 6 9 8 7 7 5 8 4 6 6 8 8 10 4 5 2 3 6 4 4 6 7 6 3 5 2 3 4 5 3 7 7 4 1 0 1 2 1 1 1 2 3 7 5 5 2 3 2 11 6 12 15 18 20 16 14 13 11 10 11 12
24 22 12 5 8 10 7 5 8 9 4 3 1 1 1 0 4 5 7 7 11 15 15 10 10 8 4 3 3 6 1 7 6 4 7 3 7 3 7 11 13 5 4 3 3 4 3 3 8 3 3 6 7 9 6 4 3 8 4 4 6 4 2 1 2 4 7 6 6 13 4 3 4 4 2 5 7 13 16 17 16 16 15 13 11 10 9 9
28 22 8 4 6 9 11 10 8 8 4 2 1 1 3 5 2 3 4 5 6 10 12 10 13 9 5 6 13 12 10 3 6 4 7 6 5 5 4 7 11 9 3 3 3 1 6 5 6 10 6 8 9 9 8 7 7 2 3 1 2 4 2 4 1 2 0 1 3 3 1 1 5 3 1 7 15 15 14 18 17 15 14 13 10 9 7 5
17 4 5 2 4 5 9 8 7 6 0 1 1 2 6 3 2 3 4 5 7 7 12 16 15 4 3 6 3 4 7 7 6 4 3 10 10 10 6 3 8 13 5 6 3 3 2 4 4 7 14 7 13 7 7 4 2 5 0 6 7 3 3 2 3 0 5 3 0 1 1 4 1 5 7 14 15 15 16 15 15 13 11 10 9 8 6 5
4 6 2 4 7 6 8 9 8 4 2 0 0 4 3 5 9 11 7 12 13 14 11 8 3 4 1 3 4 4 5 6 9 8 3 4 5 6 6 7 7 9 14 5 3 3 3 5 5 4 5 11 7 9 7 8 6 3 2 6 5 7 2 5 3 0 1 2 2 1 4 1 3 2 8 12 11 13 17 14 12 11 9 9 7 5 6 5
6 5 5 10 6 8 8 11 7 4 1 1 3 6 3 7 6 11 9 13 11 10 10 7 5 4 1 3 4 9 2 10 5 8 4 1 2 3 5 5 12 6 6 12 6 2 2 5 5 3 5 4 6 8 9 7 5 7 7 1 1 3 3 3 2 2 1 1 2 2 3 3 2 1 3 3 8 11 15 14 13 10 7 5 4 5 6 6
3 3 4 3 7 3 4 1 0 2 1 2 3 4 5 9 11 13 14 13 10 11 8 7 7 3 4 2 5 11 11 4 7 1 2 4 2 3 5 4 6 6 10 8 7 3 4 3 4 3 4 2 3 6 5 6 5 6 6 4 4 5 3 0 3 2 3 0 0 1 3 1 3 3 1 13 4 6 12 13 13 10 7 5 3 4 5 5
2 2 2 1 6 5 4 3 3 1 2 3 2 5 5 10 9 11 14 12 8 4 3 5 5 5 5 5 6 6 11 11 6 1 3 3 3 5 2 1 3 10 11 9 6 1 4 4 5 5 4 5 5 1 5 8 5 6 2 1 2 1 4 6 1 2 3 5 3 2 1 4 6 6 5 7 9 7 11 12 9 9 7 6 5 4 5 5
2 1 2 0 7 7 6 3 2 3 4 4 7 10 11 10 9 9 11 11 7 6 10 9 5 6 4 3 5 9 6 10 1 2 2 3 2 2 2 3 4 9 10 10 7 7 3 2 7 1 2 1 1 7 4 4 3 3 5 6 7 2 3 5 4 2 3 5 5 4 2 2 8 7 1 7 6 8 8 12 9 7 6 5 4 4 4 3
2 1 1 2 8 5 3 1 2 3 2 4 4 6 8 8 10 12 13 15 10 4 5 2 4 6 2 2 3 3 6 7 1 6 4 4 3 2 2 3 4 7 7 2 1 3 1 3 2 4 5 5 1 9 8 11 9 9 3 3 3 4 8 2 3 4 4 3 3 6 6 2 3 7 4 7 7 9 7 9 10 6 5 5 4 4 4 4
2 3 5 6 5 5 3 0 3 2 2 4 8 12 13 11 7 8 13 12 10 4 5 6 7 7 4 4 6 6 5 4 8 1 6 5 6 8 1 6 5 8 2 4 3 3 3 2 2 2 4 2 6 8 9 10 11 9 6 5 1 2 2 9 7 4 3 0 0 2 2 2 2 5 6 9 10 10 8 6 4 7 4 4 5 6 6 7
3 3 1 4 6 7 2 1 3 5 4 7 8 9 8 8 9 9 9 14 8 6 5 4 6 10 8 7 6 8 11 5 2 6 2 2 2 6 5 4 4 2 1 4 1 5 1 2 4 2 1 5 6 8 8 9 7 3 2 7 8 8 4 3 5 6 5 3 8 5 4 3 2 2 8 8 11 12 11 7 3 8 7 7 8 7 7 7
4 3 4 1 1 2 3 2 3 4 3 5 5 7 9 7 8 12 11 10 10 9 6 3 6 7 7 8 9 9 10 10 4 4 9 1 3 7 8 8 7 3 5 5 3 2 4 1 3 2 2 3 3 1 2 3 5 3 4 11 6 10 10 4 1 1 4 2 4 6 5 4 5 6 10 10 5 9 10 4 4 9 9 11 11 10 10 10
1 3 1 2 1 2 2 2 3 4 3 3 4 6 8 6 7 8 10 5 11 15 9 7 5 6 6 9 6 7 11 10 10 1 1 1 0 1 2 4 9 4 3 5 3 7 1 3 3 2 2 5 2 1 1 3 1 6 10 14 13 9 11 3 5 3 3 1 6 1 7 12 9 8 6 6 5 9 8 8 9 10 12 14 15 14 12 10
3 0 1 2 1 5 2 4 4 3 3 2 1 3 5 6 4 5 11 3 9 12 9 8 10 9 7 6 5 7 9 11 9 14 10 7 5 1 4 4 5 3 2 2 3 3 3 4 3 4 11 2 4 5 3 6 4 6 11 10 13 13 8 12 3 2 6 8 3 0 9 12 5 7 8 8 7 8 10 10 9 10 11 12 13 14 16 16
1 1 2 0 1 1 2 2 2 3 3 4 0 2 4 6 6 3 6 6 5 6 5 7 10 12 13 8 4 3 9 6 9 5 8 8 6 3 3 8 1 10 3 2 4 2 3 6 6 2 6 4 2 5 6 5 4 6 9 9 12 11 13 8 3 0 5 2 7 3 8 10 6 7 7 7 7 11 11 11 10 11 12 13 15 15 15 15
1 2 1 1 2 2 2 3 1 3 4 6 1 5 4 6 6 8 5 5 8 6 9 2 6 12 11 11 6 3 8 6 5 5 3 5 8 3 1 2 7 11 11 3 2 4 3 1 5 8 9 7 7 3 7 8 4 7 5 9 12 11 10 9 7 2 8 10 14 15 13 9 6 8 8 7 7 11 10 10 11 14 14 14 15 14 14 14
4 3 3 4 3 2 0 2 3 2 5 5 2 4 5 6 6 10 8 4 2 4 9 6 10 7 8 8 7 4 4 1 2 3 4 3 8 2 1 3 3 6 6 3 3 8 2 4 6 7 5 5 2 5 3 8 8 2 5 6 6 7 9 11 9 8 14 10 15 18 17 12 1 3 5 7 10 12 13 13 11 10 11 13 13 13 13 14
2 3 1 3 6 4 1 0 3 3 2 2 1 1 3 4 4 6 8 4 6 5 8 9 11 5 4 8 7 6 7 7 8 7 6 5 4 6 4 1 10 5 2 3 2 3 5 0 4 5 1 2 1 4 7 4 5 3 9 11 11 2 5 2 2 4 3 11 11 14 13 7 3 5 8 7 13 13 13 12 12 10 12 13 14 13 13 13
4 3 4 2 1 6 3 4 4 4 2 1 1 1 0 1 1 3 2 5 9 7 7 8 7 6 4 3 4 5 9 10 10 9 8 7 6 9 9 9 3 7 3 1 1 4 3 3 5 5 3 2 3 6 11 9 6 7 7 10 11 2 8 4 4 7 3 4 8 10 5 3 5 7 11 12 15 14 14 11 12 13 12 12 12 12 11 11
Wind_Direction
350 350 349 348 348 347 344 344 340 337 332 327 321 318 313 311 310 312 309 305 308 309 309 311 313 316 316 319 321 322 324 311 306 290 265 247 221 216 247 263 183 196 190 207 241 258 198 201 216 237 247 236 232 243 251 257 242 192 218 218 256 245 260 256 261 257 333 44 339 21 351 23 22 20 352 97 77 91 85 74 67 64 73 102 109 126 134 134
351 347 348 348 348 346 345 343 342 339 339 331 328 323 317 315 313 310 305 304 305 306 309 312 314 318 320 324 319 319 321 304 291 279 248 242 209 224 224 229 188 171 162 207 220 221 197 195 217 217 228 239 231 248 189 240 237 212 220 201 238 232 252 272 274 292 314 338 3 340 55 317 322 97 307 67 113 102 85 86 91 90 96 105 111 121 133 135
348 348 347 347 347 345 343 342 341 339 338 336 331 326 320 313 309 306 304 303 304 306 305 309 314 316 317 320 317 321 322 300 290 263 261 242 227 219 198 170 158 157 169 186 221 223 216 195 201 208 223 247 222 244 191 234 219 223 225 230 241 242 263 265 285 284 276 269 39 0 14 73 324 91 190 93 86 82 109 113 97 111 118 121 127 130 137 141
348 347 348 348 345 344 342 340 340 340 337 336 335 330 322 316 311 308 305 305 306 306 308 309 315 317 316 316 320 326 297 291 274 248 223 316 204 205 196 168 159 166 185 224 225 231 242 233 197 209 223 225 241 239 226 215 225 188 208 233 246 251 253 253 252 263 297 26 325 163 333 12 260 249 133 86 96 121 129 131 132 131 129 131 138 140 143 145
348 348 348 347 346 344 342 341 340 339 338 335 335 332 326 319 314 309 308 306 305 307 307 311 315 314 316 316 322 324 307 350 112 195 331 352 148 177 174 165 159 170 189 207 251 261 249 240 221 209 223 224 237 256 238 236 204 268 217 218 241 260 274 274 293 310 334 19 45 357 38 331 327 21 13 25 249 165 151 145 133 135 138 139 142 147 147 151
348 347 347 345 345 345 342 341 339 337 336 334 333 332 331 324 317 313 310 307 307 307 309 311 314 318 316 315 308 298 325 118 330 7 6 59 127 144 155 151 166 167 170 205 220 243 256 261 241 224 206 238 225 223 237 241 197 235 256 249 228 235 248 268 284 280 360 32 14 357 326 335 30 342 342 349 260 169 142 126 130 135 138 129 131 143 150 149
348 347 347 346 343 342 342 339 337 336 333 332 331 330 331 330 320 314 311 310 308 309 309 311 314 316 320 309 267 244 254 272 314 239 106 128 135 134 131 133 143 161 177 190 218 230 229 247 247 228 230 214 240 249 252 241 225 236 253 238 252 252 254 269 269 274 253 296 75 310 315 306 355 268 351 347 59 123 130 127 132 132 134 136 140 158 156 160
347 346 345 344 342 341 339 338 336 333 333 331 329 330 331 329 324 316 312 311 310 308 309 309 311 315 331 331 313 205 192 259 241 82 137 118 122 132 133 130 155 158 194 205 198 220 246 251 235 227 246 216 194 225 256 267 253 231 241 246 261 256 255 263 264 270 242 191 126 190 261 286 316 288 340 341 112 131 132 120 123 131 134 141 148 155 159 147
347 345 343 342 340 339 337 335 334 332 330 330 328 328 327 326 325 319 314 309 308 307 307 308 310 314 319 296 304 323 257 234 219 144 141 147 147 144 155 154 170 170 199 211 223 229 220 243 245 221 222 230 252 262 243 249 264 251 253 234 232 241 259 274 278 274 286 197 158 159 228 276 277 15 303 109 122 131 130 127 131 134 132 142 153 153 154 150
346 344 342 340 339 337 335 333 332 330 329 328 327 325 323 322 323 322 316 312 308 308 305 305 306 318 310 265 275 284 262 64 110 143 156 159 154 160 191 162 162 177 198 211 223 235 240 251 252 211 247 271 276 242 265 239 258 263 256 252 245 249 249 248 256 269 263 262 43 328 263 245 271 70 279 250 157 134 134 137 139 141 143 146 152 155 153 149
346 343 341 339 338 335 334 332 330 328 327 326 324 323 320 318 320 319 317 310 308 306 306 303 306 314 291 263 246 240 268 295 156 157 171 161 156 169 196 181 171 183 210 215 222 228 242 250 256 268 239 256 273 267 256 257 280 270 279 281 252 243 249 257 267 274 325 222 172 207 278 256 258 167 230 242 149 147 148 150 152 152 149 148 151 158 165 150
345 343 340 337 336 335 332 330 328 327 324 323 322 320 317 316 315 316 314 310 304 302 302 298 310 298 269 263 225 229 262 302 269 182 189 156 169 193 200 205 171 195 193 217 225 231 235 246 254 252 243 148 241 269 280 278 272 284 290 290 292 280 266 228 238 253 261 247 169 191 237 257 233 231 235 232 185 157 149 158 165 159 155 147 151 158 164 146
344 342 339 337 335 333 331 329 328 325 323 321 319 317 315 314 314 311 312 307 298 298 295 300 304 267 282 294 230 239 260 274 286 282 207 193 176 195 205 213 182 200 200 219 239 234 230 237 248 260 253 260 273 228 312 298 257 257 260 267 277 291 282 253 238 263 244 188 189 171 247 237 244 235 239 237 231 154 161 166 166 166 154 145 152 158 157 143
343 340 338 336 333 331 330 328 326 324 322 320 317 315 313 311 309 308 307 299 290 287 288 284 283 279 264 248 276 248 246 242 256 265 257 202 180 202 220 224 203 199 209 223 241 263 284 256 241 266 297 289 291 354 328 313 326 300 288 288 256 297 258 275 238 223 248 173 199 167 218 257 227 234 230 237 231 168 170 173 172 161 152 151 154 161 165 163
341 339 336 334 331 329 328 326 325 323 321 318 316 312 309 304 302 301 303 293 281 271 274 283 245 269 222 264 253 257 244 251 258 256 255 182 181 221 208 221 231 212 213 222 245 263 262 280 313 269 266 342 314 291 293 292 284 266 245 261 284 234 269 273 262 229 238 204 196 179 231 231 232 224 222 226 241 225 173 180 171 157 149 155 161 167 163 171
339 337 335 332 330 328 326 325 323 322 320 317 316 310 304 298 292 293 290 281 282 287 293 253 222 224 301 289 269 320 305 198 226 238 228 202 186 224 199 207 227 240 255 268 266 277 276 334 243 202 252 257 277 281 297 314 302 266 210 245 242 229 242 248 233 254 233 238 194 200 229 220 248 260 242 222 228 237 174 179 163 157 153 154 166 162 163 157
338 336 334 331 329 326 325 323 323 321 321 319 317 308 299 287 279 270 282 283 292 241 217 244 166 172 332 235 347 316 241 228 195 207 242 184 225 213 222 194 206 220 223 261 260 243 276 267 108 332 307 244 195 219 261 272 274 280 238 225 226 246 265 245 252 220 243 219 218 199 219 216 222 219 245 224 222 226 160 177 164 154 157 162 161 161 158 151
337 334 332 330 327 326 323 322 322 322 322 320 317 303 296 282 246 11 287 253 241 235 228 243 272 283 262 255 280 239 224 216 184 210 210 183 213 229 240 200 183 207 212 224 237 251 190 250 168 214 217 222 239 219 195 229 200 231 266 241 251 239 234 251 252 223 230 208 218 203 205 220 243 253 253 235 209 219 199 183 162 146 160 164 164 156 152 150
336 333 330 329 326 324 323 321 321 323 324 322 308 293 280 0 100 207 281 180 159 49 21 192 179 138 224 184 223 260 262 224 170 195 194 195 184 237 236 251 190 166 224 184 238 203 157 250 270 226 236 216 213 221 221 234 238 233 241 228 225 221 232 229 242 254 248 192 211 203 195 208 225 235 258 262 206 225 211 185 153 143 144 147 147 143 142 140
334 332 330 326 325 322 321 319 319 322 329 327 338 330 348 352 40 77 242 237 227 223 258 235 197 246 271 283 286 278 292 106 154 192 201 177 166 202 247 227 197 192 213 188 225 196 138 189 214 219 222 225 225 224 239 251 245 253 259 271 267 253 248 242 239 235 235 218 205 202 188 198 215 223 229 251 265 274 226 186 154 140 141 144 142 149 140 123
331 330 328 326 324 321 318 318 316 318 324 324 317 314 303 324 344 292 234 222 215 229 237 243 204 213 236 265 277 282 288 222 196 176 218 152 191 166 212 221 193 213 219 208 209 204 193 206 227 224 223 227 242 224 224 244 259 261 275 273 277 276 272 262 267 242 223 220 201 196 185 193 210 219 225 244 250 243 242 174 162 150 146 150 149 139 123 112
331 328 327 326 323 320 317 314 315 311 314 300 282 266 268 256 235 279 296 301 262 222 229 241 249 252 237 241 251 262 271 269 206 219 181 149 186 184 179 198 189 220 195 237 257 202 203 223 232 225 230 231 236 244 226 222 240 257 255 272 281 278 282 290 280 282 256 221 179 189 192 207 213 210 229 231 215 235 175 136 157 152 152 155 151 139 128 104
330 328 327 325 324 319 317 312 309 309 302 229 212 225 247 252 262 263 282 282 283 272 246 242 234 235 245 245 248 238 250 252 214 202 203 166 163 198 168 182 207 220 214 200 219 202 234 242 227 216 225 235 241 241 241 242 236 238 250 257 264 265 286 292 297 266 248 209 168 180 180 218 219 218 219 235 189 207 185 172 175 152 163 157 161 153 128 115
330 328 326 325 323 321 317 315 309 296 217 213 228 228 243 285 296 305 332 289 294 293 246 242 230 232 235 224 201 227 235 235 247 193 183 163 201 171 231 195 204 215 229 203 207 225 231 242 204 219 228 229 236 241 241 221 239 237 226 232 250 268 255 250 308 331 359 353 89 105 78 350 296 226 248 288 270 180 210 181 148 130 147 155 121 95 130 132
329 328 327 325 326 322 320 317 311 220 246 179 243 249 252 256 278 307 38 301 255 257 245 243 217 230 230 200 197 200 207 247 234 239 172 169 177 156 211 212 221 216 225 224 210 221 244 243 215 202 221 229 234 246 244 203 234 258 237 211 237 264 281 292 317 342 350 336 339 112 90 272 270 287 257 265 304 288 175 169 172 129 114 110 105 119 117 118
328 328 327 326 325 329 316 303 290 358 310 265 245 283 265 222 231 298 55 287 290 266 235 239 139 237 185 201 185 209 193 225 209 220 195 180 174 195 164 232 181 222 214 228 228 211 231 231 223 214 208 222 223 229 234 194 195 186 266 216 243 264 273 285 291 340 332 340 289 58 136 267 323 297 251 276 268 262 256 154 163 105 110 108 121 123 127 129
327 326 326 325 324 332 346 351 352 321 310 293 346 337 336 16 357 25 63 289 295 239 198 6 164 318 82 161 185 165 213 231 175 198 221 165 196 172 226 209 203 247 235 219 212 235 209 230 226 228 208 210 208 228 221 194 176 228 222 296 281 270 259 260 266 261 252 237 233 79 114 136 301 297 284 263 247 245 225 189 138 111 112 120 120 125 132 135
324 323 322 321 317 321 258 303 322 319 259 289 311 325 331 3 346 18 94 348 265 284 136 119 220 31 291 169 170 175 204 133 175 191 209 160 183 172 205 218 226 210 220 246 237 245 202 218 223 251 256 224 230 207 175 159 154 213 184 228 265 271 267 249 228 243 222 221 267 245 126 59 267 264 283 309 296 268 273 143 105 107 110 118 117 123 131 133
321 320 320 319 315 298 260 229 282 268 256 320 310 327 356 338 3 83 158 139 284 330 354 186 323 196 218 157 181 169 199 245 261 167 181 157 186 176 188 227 251 268 265 222 232 258 224 210 192 232 240 256 231 153 152 133 195 247 237 243 255 270 275 268 219 235 49 159 235 234 136 124 288 271 282 318 289 272 215 169 129 121 131 128 124 128 127 123
320 318 318 320 320 301 139 201 235 245 275 287 300 323 340 2 10 45 6 269 77 269 172 108 249 189 222 164 197 166 220 215 257 161 160 156 191 214 266 201 225 250 269 282 279 252 259 205 213 196 226 236 307 233 147 205 222 198 207 232 253 260 262 269 211 156 77 215 250 239 5 132 276 265 221 46 298 263 83 98 110 107 112 119 126 130 133 133
317 314 312 314 285 296 335 250 241 241 249 257 269 323 317 353 140 154 247 254 318 254 184 124 194 162 184 201 190 183 212 244 246 224 169 137 175 205 234 276 263 267 270 276 260 266 253 256 218 182 173 197 312 301 219 242 238 220 203 217 248 300 292 294 293 154 142 254 256 168 225 163 202 288 20 91 77 20 77 112 124 128 127 129 134 134 135 136
311 308 299 296 250 274 237 225 326 340 322 331 347 340 328 16 169 179 223 354 257 258 130 235 239 195 183 190 234 171 202 212 244 241 192 162 159 185 184 213 171 241 281 252 269 265 255 238 220 251 121 108 169 236 280 241 227 227 229 201 160 259 62 267 170 225 193 173 237 198 198 192 219 222 166 72 38 34 34 121 130 128 124 125 132 139 136 137
310 302 299 278 250 225 236 249 295 296 307 316 24 351 59 116 237 229 262 331 252 349 7 328 312 254 217 192 216 221 183 225 186 242 173 165 167 191 185 202 209 164 205 251 260 275 269 226 251 228 200 157 236 200 242 270 263 237 205 173 148 73 340 266 270 179 282 267 235 286 198 216 223 17 45 91 77 75 66 92 121 126 118 125 137 135 133 140
306 306 297 232 214 216 237 242 245 262 263 337 346 342 37 183 245 211 232 232 278 314 312 304 308 278 253 244 9 354 290 218 215 191 174 150 194 222 201 201 229 228 199 272 240 207 281 279 255 233 230 146 200 227 210 230 199 192 161 149 162 155 151 214 174 181 210 214 229 233 241 226 111 216 83 79 72 76 95 95 100 109 120 129 131 131 131 141
309 300 258 249 234 237 232 239 259 265 278 287 279 146 162 232 292 298 274 275 267 283 279 298 293 300 252 233 167 185 182 309 297 296 191 164 205 222 187 204 207 230 186 235 241 298 247 214 228 213 224 169 202 214 240 267 301 255 154 140 212 226 180 239 200 135 237 38 1 350 160 241 146 239 114 86 72 57 90 106 110 118 130 136 134 133 141 137
311 290 137 226 190 221 206 218 228 243 76 353 146 212 222 201 226 192 240 258 259 278 324 332 310 284 330 304 212 211 168 134 264 338 260 201 184 202 225 204 198 200 203 187 188 235 273 267 280 217 216 191 196 189 218 209 240 285 113 195 217 217 131 89 350 183 84 47 242 207 3 334 344 25 21 75 74 71 68 98 109 116 124 124 128 134 124 114
296 305 217 220 209 186 187 201 204 184 161 333 316 248 241 265 256 282 302 298 306 312 307 313 323 320 13 314 329 249 187 163 169 193 271 29 1 301 233 238 211 191 217 187 274 238 191 247 268 342 247 219 203 193 209 197 161 148 260 245 227 226 124 147 199 299 140 167 244 37 185 85 56 285 31 352 79 79 81 89 105 107 112 120 125 115 115 118
309 284 274 272 239 185 189 204 189 140 145 291 246 261 288 278 263 273 294 301 304 324 326 310 292 339 329 349 306 314 200 179 161 188 193 6 250 172 45 10 303 271 218 213 221 281 26 317 299 278 243 260 223 179 213 251 205 165 193 224 61 204 215 314 116 220 230 196 173 209 164 76 73 260 74 7 325 91 88 86 84 82 86 95 97 86 74 78
262 289 318 54 88 108 129 102 98 129 201 247 253 282 235 240 267 272 276 282 280 280 280 269 283 267 267 231 317 309 311 267 168 11 171 326 62 347 82 352 292 348 348 331 242 198 134 171 296 296 317 353 325 159 215 230 256 238 123 186 182 128 154 110 184 181 133 232 10 302 7 110 13 325 306 127 225 81 93 89 86 84 77 68 57 64 69 61
211 275 250 192 114 90 62 71 99 147 213 227 233 235 277 275 264 249 248 252 272 268 254 299 318 313 336 317 328 328 330 344 103 202 57 253 217 287 56 339 284 319 342 341 350 246 213 134 217 286 332 350 327 255 205 178 203 227 177 130 241 133 203 114 301 147 155 158 138 146 9 294 303 333 31 85 101 99 99 98 98 100 97 90 86 89 77 62
268 261 251 246 107 97 80 96 112 187 219 246 250 266 274 273 275 279 301 293 290 289 284 271 289 295 265 333 345 349 313 321 109 55 52 175 144 313 12 54 332 337 342 350 29 4 343 161 183 288 354 31 192 294 331 332 270 185 166 188 175 114 140 146 256 228 167 111 159 125 191 178 285 318 13 93 92 91 86 95 92 85 89 97 89 84 85 81
298 272 144 135 131 130 114 163 235 194 225 260 283 294 287 310 304 316 327 309 260 277 255 308 332 298 294 338 302 306 306 300 21 126 163 155 311 199 287 3 352 349 339 312 320 341 149 264 120 186 196 196 158 309 341 350 340 293 157 217 160 144 132 68 281 279 30 22 66 135 110 285 221 295 43 61 73 73 75 87 97 92 93 95 88 85 81 77
209 264 167 185 164 172 191 297 285 300 222 258 268 259 266 262 290 327 309 319 325 352 346 349 330 324 333 354 341 318 313 299 299 141 197 149 188 201 73 59 39 348 52 304 341 305 303 33 351 309 339 328 13 352 346 20 359 353 353 359 17 148 158 155 187 187 96 198 54 57 74 191 19 346 29 57 62 65 58 31 72 98 97 96 82 64 56 58
315 298 117 196 176 198 140 26 316 313 322 324 334 315 310 318 329 322 333 340 330 342 357 324 327 357 329 4 349 329 323 290 288 120 19 197 109 153 147 140 98 37 55 243 137 290 29 307 107 345 357 345 350 7 356 354 34 21 325 326 0 23 3 129 109 153 128 199 158 117 169 208 165 129 79 51 63 60 55 38 314 95 89 93 95 73 51 38
285 246 201 194 225 78 43 342 339 321 316 5 335 332 352 346 340 339 321 322 340 330 328 307 337 318 333 346 338 319 317 310 309 79 156 73 130 202 148 164 133 140 253 206 95 48 94 287 47 104 133 169 235 204 272 323 291 290 354 343 19 36 27 21 81 26 103 295 98 120 122 88 98 93 87 83 83 94 92 91 42 60 68 74 81 79 64 54
300 338 3 76 334 79 77 15 354 345 19 1 353 341 10 339 334 324 315 328 2 340 329 335 323 345 349 344 330 327 316 333 330 316 47 54 188 154 91 144 152 148 38 50 349 81 9 0 28 57 139 185 171 122 234 282 10 46 345 14 7 23 31 87 120 83 106 207 74 338 146 130 127 120 117 124 137 109 111 105 85 73 65 62 63 64 65 62
304 274 18 322 320 45 13 41 6 5 9 343 36 330 358 343 345 339 353 3 348 350 347 349 11 7 332 331 337 325 338 325 15 41 15 19 354 343 303 41 355 168 358 26 36 78 70 25 313 18 324 279 127 72 52 53 47 23 26 26 37 26 38 50 52 226 147 91 20 334 121 119 135 124 128 125 120 111 100 97 94 85 80 82 79 72 65 61
255 221 114 298 98 300 26 348 6 358 15 9 193 312 10 5 358 17 335 13 329 8 353 338 7 12 3 20 350 21 341 2 38 9 12 350 332 301 51 11 349 345 342 40 14 72 131 174 222 130 256 318 97 105 64 51 41 3 29 34 44 35 31 33 338 319 110 118 157 150 106 113 129 117 122 133 142 121 116 110 105 96 85 81 79 72 67 63
77 315 82 97 32 205 180 161 353 35 41 9 17 4 360 11 6 355 346 17 7 5 14 355 357 17 358 6 23 34 15 19 346 347 19 350 312 315 341 20 359 4 356 333 140 9 335 306 158 156 224 251 264 135 107 87 346 320 32 31 26 35 31 18 357 33 101 118 114 108 97 86 120 142 159 168 136 109 100 96 91 88 88 86 81 76 71 65
15 339 329 345 313 254 286 164 120 70 82 14 48 347 353 20 357 345 337 41 15 354 360 11 15 30 359 351 31 35 9 358 224 314 309 326 319 302 216 160 157 343 266 64 39 2 354 308 341 211 212 203 353 336 142 151 159 213 45 40 38 52 33 16 3 20 82 90 115 113 107 106 92 116 104 134 117 97 94 90 87 87 89 88 83 77 68 61
311 351 333 343 338 286 241 85 58 101 79 7 89 320 17 5 6 332 319 357 50 9 1 357 351 0 8 360 10 0 345 328 315 291 297 302 276 294 329 267 142 180 172 70 84 94 34 254 339 343 274 340 32 21 300 248 167 81 34 9 354 28 60 62 25 327 334 133 120 104 107 122 135 140 136 102 86 84 82 79 75 67 62 66 70 68 64 59
346 315 24 12 306 269 47 62 52 41 7 248 158 131 103 353 268 331 350 4 15 9 348 343 341 355 346 22 3 322 309 300 293 290 282 275 271 276 283 281 269 147 152 91 11 92 114 43 30 335 29 101 2 238 222 167 85 50 354 334 313 310 132 96 43 99 81 60 95 114 137 159 130 112 98 78 79 81 75 71 79 74 67 67 68 68 69 68